FW1789 Clearwater Beach FL US current weather conditions

sailwx.info

Wind from 019 at 8 knots gusting 13

Air temperature 11.1° C
Dewpoint 8.7° C

Last reported at 2020-Jan-23 03:58 UTC.
Time now 2020-Jan-23 05:11 UTC

Location: N 27°59' W 082°50'.
View on Google Maps.

See reports from other nearby stations

  
Tides and Currents Weather Stations Pressure Air Temp Water Temp Dewpoint Dewpoint Depression Visibility Wind Speed Wind Dir Waves Ship Positions
date/time (UTC)wind fromknots sea level pressurealtimeterstation pressurevisibilityair tempwater tempwave heightnotes
2020-Jan-23 03:58 019 8 gusting 13 11.1
2020-Jan-23 03:48 348 6 gusting 13 11.1
2020-Jan-23 03:38 017 8 gusting 15 11.1
2020-Jan-23 03:28 024 9 gusting 19 11.1
2020-Jan-23 03:19 355 9 gusting 15 11.7
2020-Jan-23 03:13 347 10 gusting 17 11.7
2020-Jan-23 03:03 029 10 gusting 18 11.7
2020-Jan-23 02:54 313 10 gusting 19 11.7
2020-Jan-23 02:43 038 8 gusting 17 11.7
2020-Jan-23 02:34 015 9 gusting 17 11.7
2020-Jan-23 02:24 030 8 gusting 18 11.7
2020-Jan-23 02:13 333 9 gusting 16 11.7
2020-Jan-23 02:08 014 6 gusting 16 11.7
2020-Jan-23 01:58 355 8 gusting 18 12.2
2020-Jan-23 01:48 047 6 gusting 16 12.2
2020-Jan-23 01:39 040 5 gusting 16 12.2
2020-Jan-23 01:33 005 6 gusting 16 12.2
2020-Jan-23 01:28 012 6 gusting 15 12.2
2020-Jan-23 01:18 019 10 gusting 16 12.8
2020-Jan-23 01:04 355 7 gusting 13 12.2
2020-Jan-23 00:53 355 7 gusting 13 12.2
2020-Jan-23 00:38 051 6 gusting 13 12.2
2020-Jan-23 00:29 333 4 gusting 11 12.2
2020-Jan-23 00:23 005 6 gusting 11 12.2
2020-Jan-23 00:13 018 5 gusting 13 12.8
2020-Jan-23 00:03 040 6 gusting 14 12.8
2020-Jan-22 23:53 337 7 gusting 12 12.2
2020-Jan-22 23:43 036 4 gusting 13 12.2
2020-Jan-22 23:33 005 6 gusting 13 12.2
2020-Jan-22 23:28 005 6 gusting 12 12.2
2020-Jan-22 23:18 018 4 gusting 11 12.2
2020-Jan-22 23:09 331 5 gusting 11 12.2
2020-Jan-22 22:59 348 6 gusting 13 12.2
2020-Jan-22 22:43 327 8 gusting 16 12.2
2020-Jan-22 22:34 329 5 gusting 15 11.7
2020-Jan-22 22:23 315 8 gusting 15 11.7
2020-Jan-22 22:13 317 12 gusting 17 11.7
2020-Jan-22 22:03 306 10 gusting 18 11.7
2020-Jan-22 21:53 350 14 gusting 18 11.7
2020-Jan-22 21:44 320 13 gusting 19 11.1
2020-Jan-22 21:33 334 12 gusting 19 11.1
2020-Jan-22 21:28 287 13 gusting 19 11.1
2020-Jan-22 21:18 318 13 gusting 20 11.1
2020-Jan-22 21:09 333 14 gusting 20 11.1
2020-Jan-22 21:04 346 12 gusting 19 11.1
2020-Jan-22 20:54 329 12 gusting 19 10.6
2020-Jan-22 20:48 311 13 gusting 17 10.6
2020-Jan-22 20:38 319 11 gusting 17 10.6
2020-Jan-22 20:28 308 11 gusting 18 10.6
2020-Jan-22 20:19 336 12 gusting 18 10.0
2020-Jan-22 20:08 323 11 gusting 19 9.4
2020-Jan-22 19:59 325 13 gusting 17 9.4
2020-Jan-22 19:53 309 12 gusting 17 9.4
2020-Jan-22 19:48 333 13 gusting 16 8.9
2020-Jan-22 19:38 313 12 gusting 17 8.9
2020-Jan-22 19:24 321 13 gusting 17 8.3
2020-Jan-22 19:18 294 11 gusting 17 8.3
2020-Jan-22 19:08 349 12 gusting 16 7.8
2020-Jan-22 18:58 313 10 gusting 17 7.8
2020-Jan-22 18:48 303 11 gusting 19 7.8
2020-Jan-22 18:39 329 13 gusting 19 7.2
2020-Jan-22 18:34 332 14 gusting 19 7.2
2020-Jan-22 18:28 316 15 gusting 19 7.2
2020-Jan-22 18:18 316 14 gusting 19 7.2
2020-Jan-22 18:08 335 13 gusting 18 7.2
2020-Jan-22 17:58 337 12 gusting 18 7.2
2020-Jan-22 17:49 331 11 gusting 17 6.7
2020-Jan-22 17:44 329 13 gusting 17 6.7
2020-Jan-22 17:38 298 12 gusting 15 6.7
2020-Jan-22 17:29 317 11 gusting 16 6.7
2020-Jan-22 17:20 324 9 gusting 15 6.1
2020-Jan-22 17:08 312 10 gusting 16 6.1
2020-Jan-22 16:58 342 11 gusting 15 6.1
2020-Jan-22 16:49 302 9 gusting 14 6.1
2020-Jan-22 16:38 325 11 gusting 15 5.6
2020-Jan-22 16:33 317 11 gusting 14 6.1
2020-Jan-22 16:23 348 8 gusting 15 6.1
2020-Jan-22 16:13 019 8 gusting 17 6.1
2020-Jan-22 16:04 324 5 gusting 15 6.1
2020-Jan-22 15:53 016 5 gusting 14 6.1
2020-Jan-22 15:43 005 9 gusting 15 5.6
2020-Jan-22 15:33 005 9 gusting 17 5.6
2020-Jan-22 15:23 350 6 gusting 15 5.6
2020-Jan-22 15:13 350 9 gusting 16 5.6
2020-Jan-22 15:04 348 6 gusting 16 5.6
2020-Jan-22 14:53 040 8 gusting 18 5.0
2020-Jan-22 14:43 355 13 gusting 18 5.0
2020-Jan-22 14:33 323 11 gusting 16 5.6
2020-Jan-22 14:23 342 9 gusting 16 5.6
2020-Jan-22 14:13 038 7 gusting 17 5.6
2020-Jan-22 14:03 299 5 gusting 16 5.6
2020-Jan-22 13:53 321 10 gusting 15 5.0
2020-Jan-22 13:44 060 8 gusting 18 5.0
2020-Jan-22 13:38 315 8 gusting 18 5.0
2020-Jan-22 13:28 344 7 gusting 16 5.0
2020-Jan-22 13:19 329 8 gusting 15 4.4
2020-Jan-22 13:08 340 4 gusting 11 3.9
2020-Jan-22 12:58 016 6 gusting 12 3.9
2020-Jan-22 12:49 015 4 gusting 9 3.3
2020-Jan-22 12:43 355 6 gusting 9 3.3
2020-Jan-22 12:33 024 6 gusting 9 2.8
2020-Jan-22 12:23 037 3 gusting 10 2.8
2020-Jan-22 12:13 011 4 gusting 10 2.8
2020-Jan-22 12:03 005 6 gusting 11 2.8
2020-Jan-22 11:54 049 6 gusting 9 2.8
2020-Jan-22 11:44 017 4 gusting 13 2.8
2020-Jan-22 11:33 017 6 gusting 13 2.8
2020-Jan-22 11:18 344 6 gusting 13 2.8
2020-Jan-22 11:09 096 7 gusting 15 2.8
2020-Jan-22 10:59 336 5 gusting 16 2.8
2020-Jan-22 10:48 315 7 gusting 15 2.8
2020-Jan-22 10:38 011 10 gusting 18 2.8
2020-Jan-22 10:29 031 7 gusting 20 2.8
2020-Jan-22 10:18 005 13 gusting 24 2.8
2020-Jan-22 10:08 031 9 gusting 20 2.8
2020-Jan-22 09:59 355 15 gusting 24 2.8
2020-Jan-22 09:53 344 11 gusting 25 2.8
2020-Jan-22 09:43 017 13 gusting 24 2.8
2020-Jan-22 09:33 350 11 gusting 20 2.8
2020-Jan-22 09:23 055 13 gusting 21 3.3
2020-Jan-22 09:13 005 13 gusting 29 3.3
2020-Jan-22 09:03 029 15 gusting 23 3.3
2020-Jan-22 08:53 019 13 gusting 26 3.3
2020-Jan-22 08:43 355 13 gusting 21 3.3
2020-Jan-22 08:35 033 10 gusting 20 3.3
2020-Jan-22 08:23 005 13 gusting 26 3.9
2020-Jan-22 08:13 360 11 gusting 20 3.9
2020-Jan-22 08:03 013 10 gusting 20 3.9
2020-Jan-22 07:53 022 15 gusting 25 3.9
2020-Jan-22 07:43 360 14 gusting 25 3.9
2020-Jan-22 07:38 021 11 gusting 24 3.9
2020-Jan-22 07:28 360 11 gusting 22 4.4
2020-Jan-22 07:19 009 11 gusting 24 4.4
2020-Jan-22 07:13 318 9 gusting 26 4.4
2020-Jan-22 07:03 005 13 gusting 26 4.4
2020-Jan-22 06:53 360 13 gusting 26 5.0
2020-Jan-22 06:43 005 10 gusting 23 4.4
2020-Jan-22 06:33 036 9 gusting 23 4.4
2020-Jan-22 06:23 022 12 gusting 21 4.4
2020-Jan-22 06:13 005 11 gusting 21 4.4
2020-Jan-22 06:04 355 12 gusting 21 5.0
2020-Jan-22 05:53 013 11 gusting 21 5.0
2020-Jan-22 05:43 012 11 gusting 19 5.0
2020-Jan-22 05:33 005 11 gusting 21 5.0
2020-Jan-22 05:28 019 13 gusting 22 5.0
2020-Jan-22 05:19 039 13 gusting 26 5.0
2020-Jan-22 05:08 325 10 gusting 24 5.0
2020-Jan-22 04:59 334 10 gusting 24 5.0
2020-Jan-22 04:53 013 14 gusting 25 5.0
2020-Jan-22 04:43 340 13 gusting 25 5.0
2020-Jan-22 04:33 360 16 gusting 21 5.6
2020-Jan-22 04:24 023 12 gusting 26 5.6
2020-Jan-22 04:18 342 18 gusting 26 5.6
2020-Jan-22 04:08 355 13 gusting 23 5.6
2020-Jan-22 03:58 339 15 gusting 24 5.6
2020-Jan-22 03:48 355 13 gusting 26 5.6
2020-Jan-22 03:38 351 13 gusting 22 6.1
2020-Jan-22 03:28 360 15 gusting 23 6.1
2020-Jan-22 03:18 039 12 gusting 21 6.1
2020-Jan-22 03:08 355 13 gusting 23 6.1
2020-Jan-22 03:03 015 15 gusting 23 6.1
2020-Jan-22 02:53 348 14 gusting 26 6.7
2020-Jan-22 02:44 343 13 gusting 23 6.7
2020-Jan-22 02:34 355 11 gusting 21 6.7
2020-Jan-22 02:28 017 9 gusting 19 6.7
2020-Jan-22 02:13 360 12 gusting 21 7.2
2020-Jan-22 01:54 017 10 gusting 17 7.2
2020-Jan-22 01:48 016 9 gusting 17 7.2
2020-Jan-22 01:38 355 11 gusting 18 7.8
2020-Jan-22 01:28 360 10 gusting 20 7.8
2020-Jan-22 01:19 032 11 gusting 20 7.8
2020-Jan-22 01:08 009 10 gusting 20 8.3
2020-Jan-22 00:58 327 10 gusting 22 8.3
2020-Jan-22 00:48 326 12 gusting 24 8.3
2020-Jan-22 00:38 348 10 gusting 20 8.9
2020-Jan-22 00:28 360 9 gusting 21 8.9
2020-Jan-22 00:18 054 12 gusting 20 8.9
2020-Jan-22 00:08 335 8 gusting 20 8.9
2020-Jan-21 23:58 022 13 gusting 25 8.9
2020-Jan-21 23:48 009 9 gusting 20 8.3
2020-Jan-21 23:38 340 6 gusting 19 8.9
2020-Jan-21 23:28 321 11 gusting 19 8.9
2020-Jan-21 23:23 298 11 gusting 22 8.9
2020-Jan-21 23:13 321 9 gusting 19 8.9
2020-Jan-21 23:04 340 13 gusting 22 8.9
2020-Jan-21 22:58 307 11 gusting 19 8.9
2020-Jan-21 22:48 342 10 gusting 20 8.9
2020-Jan-21 22:33 015 10 gusting 24 9.4
2020-Jan-21 22:23 314 12 gusting 23 9.4
2020-Jan-21 22:14 322 14 gusting 26 9.4
2020-Jan-21 22:08 328 16 gusting 20 9.4
2020-Jan-21 22:03 327 10 gusting 23 9.4
2020-Jan-21 21:53 340 13 gusting 24 9.4
2020-Jan-21 21:43 318 19 gusting 27 9.4
2020-Jan-21 21:34 307 16 gusting 28 9.4
2020-Jan-21 21:23 339 13 gusting 26 9.4
2020-Jan-21 21:13 337 13 gusting 28 8.9
2020-Jan-21 21:03 309 14 gusting 25 8.9
2020-Jan-21 20:53 329 19 gusting 26 8.9
2020-Jan-21 20:48 332 15 gusting 23 9.4
2020-Jan-21 20:38 320 17 gusting 28 8.9
2020-Jan-21 20:28 286 17 gusting 26 9.4
2020-Jan-21 20:18 328 10 gusting 22 9.4
2020-Jan-21 20:08 326 11 gusting 24 8.9
2020-Jan-21 19:58 327 16 gusting 25 8.9
2020-Jan-21 19:48 327 17 gusting 26 8.9
2020-Jan-21 19:38 301 13 gusting 28 8.9
2020-Jan-21 19:34 355 16 gusting 31 8.9
2020-Jan-21 19:23 005 16 gusting 29 8.9
2020-Jan-21 19:18 329 17 gusting 29 8.9
2020-Jan-21 19:08 311 19 gusting 28 8.3
2020-Jan-21 18:58 327 19 gusting 28 8.9
2020-Jan-21 18:48 332 21 gusting 27 8.9
2020-Jan-21 18:38 315 12 gusting 32 8.9
2020-Jan-21 18:23 336 11 gusting 26 8.9
2020-Jan-21 18:13 263 19 gusting 27 8.9
2020-Jan-21 18:03 333 18 gusting 28 8.9
2020-Jan-21 17:53 342 19 gusting 26 8.3
2020-Jan-21 17:44 316 14 gusting 30 8.9
2020-Jan-21 17:38 346 19 gusting 30 8.9
2020-Jan-21 17:28 330 14 gusting 26 8.9
2020-Jan-21 17:18 336 11 gusting 27 8.9
2020-Jan-21 17:13 317 13 gusting 28 8.3
2020-Jan-21 17:03 317 15 gusting 26 8.3
2020-Jan-21 16:53 342 10 gusting 26 8.3
2020-Jan-21 16:43 321 12 gusting 23 8.9
2020-Jan-21 16:33 317 14 gusting 25 8.9
2020-Jan-21 16:23 330 8 gusting 22 8.9
2020-Jan-21 16:13 315 15 gusting 25 8.9
2020-Jan-21 16:08 337 14 gusting 25 8.9
2020-Jan-21 15:58 323 10 gusting 25 8.9
2020-Jan-21 15:48 333 12 gusting 26 8.9
2020-Jan-21 15:38 267 14 gusting 26 8.9
2020-Jan-21 15:28 309 14 gusting 21 9.4
2020-Jan-21 15:19 313 9 gusting 19 8.9
2020-Jan-21 15:08 315 8 gusting 16 8.9
2020-Jan-21 15:03 325 8 gusting 16 8.9
2020-Jan-21 14:53 109 6 gusting 18 8.9
2020-Jan-21 14:43 349 10 gusting 18 8.9
2020-Jan-21 14:33 050 8 gusting 18 8.9
2020-Jan-21 14:28 024 7 gusting 17 8.9
2020-Jan-21 14:18 055 11 gusting 18 8.3
2020-Jan-21 14:08 014 8 gusting 19 8.3
2020-Jan-21 13:58 047 9 gusting 19 8.3
2020-Jan-21 13:48 020 9 gusting 18 8.3
2020-Jan-21 13:38 033 10 gusting 15 7.8
2020-Jan-21 13:28 009 9 gusting 15 7.8
2020-Jan-21 13:18 005 7 gusting 16 7.8
2020-Jan-21 13:08 355 7 gusting 16 7.2
2020-Jan-21 12:58 016 10 gusting 16 7.2
2020-Jan-21 12:53 360 11 gusting 16 7.2
2020-Jan-21 12:43 355 10 gusting 17 6.7
2020-Jan-21 12:33 351 11 gusting 17 6.7
2020-Jan-21 12:23 348 9 gusting 15 6.7
2020-Jan-21 12:18 360 9 gusting 13 6.7
2020-Jan-21 12:08 070 9 gusting 15 6.7
2020-Jan-21 11:58 344 8 gusting 13 6.7
2020-Jan-21 11:48 319 6 gusting 14 6.7
2020-Jan-21 11:38 017 7 gusting 16 6.1
2020-Jan-21 11:28 339 6 gusting 13 6.1
2020-Jan-21 11:18 344 8 gusting 15 6.1
2020-Jan-21 11:08 045 6 gusting 13 6.1
2020-Jan-21 10:59 005 9 gusting 14 6.1
2020-Jan-21 10:53 005 6 gusting 12 6.1
2020-Jan-21 10:43 022 6 gusting 14 6.7
2020-Jan-21 10:33 015 6 gusting 13 6.7
2020-Jan-21 10:23 355 7 gusting 14 6.7
2020-Jan-21 10:13 355 7 gusting 14 6.7
2020-Jan-21 10:03 355 6 gusting 15 6.7
2020-Jan-21 09:53 360 6 gusting 14 6.7
2020-Jan-21 09:43 342 9 gusting 16 6.7
2020-Jan-21 09:33 346 6 gusting 14 6.7
2020-Jan-21 09:23 014 9 gusting 15 6.7
2020-Jan-21 09:13 005 7 gusting 16 7.2
2020-Jan-21 09:03 293 6 gusting 14 7.2
2020-Jan-21 08:58 360 7 gusting 14 7.2
2020-Jan-21 08:48 005 6 gusting 15 7.2
2020-Jan-21 08:38 360 6 gusting 14 7.2
2020-Jan-21 08:29 013 6 gusting 15 7.2
2020-Jan-21 08:18 017 9 gusting 14 7.2
2020-Jan-21 08:08 015 10 gusting 19 7.2
2020-Jan-21 07:58 049 11 gusting 19 7.2
2020-Jan-21 07:50 026 6 gusting 15 7.2
2020-Jan-21 07:38 032 8 gusting 16 7.8
2020-Jan-21 07:33 028 11 gusting 18 7.8
2020-Jan-21 07:23 360 11 gusting 19 7.8
2020-Jan-21 07:13 351 11 gusting 17 7.8
2020-Jan-21 07:03 048 9 gusting 15 7.8
2020-Jan-21 06:53 031 10 gusting 15 7.8
2020-Jan-21 06:43 360 8 gusting 13 7.8
2020-Jan-21 06:38 355 7 gusting 15 7.8
2020-Jan-21 06:28 046 8 gusting 17 8.3
2020-Jan-21 06:18 355 10 gusting 17 8.3
2020-Jan-21 06:08 010 8 gusting 19 8.3
2020-Jan-21 05:58 355 11 gusting 18 8.3
2020-Jan-21 05:43 360 10 gusting 16 8.9
2020-Jan-21 05:33 012 10 gusting 16 8.9
2020-Jan-21 05:28 038 11 gusting 15 8.9
2020-Jan-21 05:18 013 8 gusting 14 9.4
2020-Jan-21 05:08 036 11 gusting 16 9.4